ASIASAT 9

Last updated on Jan. 19, 2021, 6:23 a.m. UTC

1 42942U 17057A   21018.42284880 -.00000359  00000-0  00000+0 0  9996
2 42942   0.0069  81.5540 0002319 204.8697 105.9143  1.00270171 12131
UTC
Height (km)
Latitude
Longitude
Inclination
Orbital Period
UTC large
Height (km)
Speed (km/s)
/
Latitude / Longitude
Inclination (degrees)
Orbital Period (minutes)
Azimuth
Elevation
Range (km)
Doppler Factor
iOS Compass Heading
iOS Angle

Next 30 passes for location: Hong Kong

Rise time Rise Azimuth (degrees) Set time Set Azimuth (degrees) Duration Max altitude (degrees)

No matching passes for this satellites